Wind_Speed
7 9 8 9 10 12 15 18 20 21 22 19 18 17 18 19 22 23 24 25 27 28 29 30 32 33 34 35 35 36 37 37 38 38 39 40 41 41 42 42 41 41 41 40
3 4 4 5 9 13 15 17 20 21 19 20 21 22 19 19 22 23 25 26 27 28 29 30 32 33 34 35 35 36 36 36 37 37 38 38 38 38 37 37 37 37 37 38
2 1 3 7 9 11 14 17 19 20 20 22 23 24 24 23 23 24 25 26 27 28 30 31 31 31 31 32 34 34 34 34 34 34 34 34 34 34 33 34 34 35 35 36
0 3 7 8 10 13 14 16 18 19 21 22 23 24 24 23 23 24 24 26 27 27 28 27 27 27 28 29 30 30 31 31 31 31 31 31 30 30 31 31 32 32 33 33
3 5 8 9 12 13 14 16 18 19 21 22 23 24 24 23 23 23 24 25 25 24 23 23 24 25 26 26 26 26 27 27 27 27 28 28 28 28 29 29 29 29 30 31
5 6 9 10 12 14 16 17 17 18 20 21 22 22 22 21 21 22 23 24 24 22 22 22 22 22 21 21 22 23 24 25 25 26 26 26 27 27 27 28 28 28 28 28
6 8 9 11 13 15 16 17 17 17 18 19 20 20 19 19 20 21 21 22 21 21 20 20 20 19 20 20 21 22 23 23 24 24 25 25 25 26 26 26 26 25 25 24
7 9 10 13 14 15 16 16 16 16 17 17 18 17 17 17 18 17 18 18 18 18 18 18 18 19 19 20 20 21 21 21 22 22 23 23 23 23 22 22 23 22 22 21
8 9 11 13 14 14 14 15 15 16 16 15 15 15 15 15 15 15 15 16 16 16 16 16 17 17 18 18 19 19 19 20 20 20 20 20 20 20 20 20 20 19 19 18
9 10 12 13 14 15 15 15 15 15 14 14 13 13 12 12 13 13 14 14 14 15 15 16 16 16 17 18 18 17 18 18 17 17 17 17 18 18 18 18 17 16 15 14
9 11 12 13 14 15 15 15 15 15 14 13 12 11 11 10 11 11 12 13 13 14 14 15 15 16 16 16 15 15 15 15 16 15 15 16 16 16 15 15 14 13 12 11
9 11 13 13 14 15 16 15 15 15 14 12 11 11 10 10 10 10 10 11 11 12 12 13 13 14 14 14 14 14 15 14 14 14 14 14 13 13 12 12 11 11 10 9
9 11 12 14 15 15 15 15 15 14 14 13 11 11 10 10 10 10 11 11 11 12 11 12 13 13 13 13 13 13 13 13 13 12 12 12 12 11 10 10 10 9 9 8
10 11 12 13 15 15 15 15 15 14 14 13 12 12 11 11 11 11 11 12 12 11 12 12 13 13 13 12 12 12 12 12 12 11 11 10 10 9 8 8 8 8 8 7
9 11 12 13 14 15 15 15 15 15 14 13 13 12 12 11 12 12 12 12 12 12 12 13 13 13 12 11 11 11 11 10 10 10 9 9 8 8 7 7 8 7 7 6
9 10 12 13 14 15 15 15 15 15 14 13 13 12 12 12 12 12 12 13 13 13 13 13 13 13 12 11 11 11 10 10 10 9 9 8 8 8 7 7 7 7 6 6
8 10 11 13 14 14 15 15 15 15 14 14 13 13 13 13 13 13 13 13 13 13 14 14 14 14 13 11 11 10 10 9 9 9 8 8 8 7 7 6 6 6 6 5
7 9 11 12 13 14 14 15 15 15 15 14 14 13 13 13 14 14 14 14 14 14 14 15 15 14 13 12 11 11 11 10 10 9 9 9 8 8 7 6 5 5 5 4
7 9 10 12 13 13 14 15 15 15 15 15 14 14 14 14 14 15 15 15 14 14 15 16 16 15 14 13 12 12 12 11 10 10 10 10 9 8 7 6 5 5 5 4
6 8 10 11 12 13 13 14 14 15 15 14 14 14 14 14 15 15 15 15 15 16 17 17 16 15 14 13 13 12 12 12 12 11 11 10 10 9 8 7 6 5 5 5
6 8 9 10 11 12 13 13 14 14 14 14 14 14 14 14 15 15 16 16 16 17 17 17 17 16 16 15 14 13 13 13 13 13 12 12 11 10 9 8 7 6 6 6
6 7 9 10 11 11 12 12 13 13 14 14 14 14 14 14 14 15 16 16 16 17 17 17 18 18 18 17 15 15 15 14 14 14 14 13 12 11 10 9 8 7 7 6
7 8 8 9 10 10 11 12 12 12 13 13 13 13 14 14 14 14 15 16 16 17 17 17 17 18 18 17 16 16 16 15 15 15 15 14 14 13 12 10 9 8 8 8
9 8 9 9 10 10 10 11 11 11 12 12 12 12 13 13 14 14 14 15 15 16 16 17 17 17 17 17 17 17 16 16 15 15 15 15 14 14 14 12 11 10 10 9
10 10 10 9 9 9 10 10 10 10 11 11 11 11 12 12 13 13 14 14 14 15 15 16 16 17 16 16 17 17 17 17 17 16 16 15 14 14 14 13 13 12 11 11
12 11 11 10 10 10 10 10 10 10 10 10 10 10 11 11 12 12 12 13 13 14 14 14 15 15 16 16 16 16 16 17 17 16 16 15 15 14 14 13 13 13 12 12
14 13 13 12 11 11 10 10 10 10 10 10 10 10 10 10 11 11 11 12 12 12 13 13 13 14 15 15 16 16 16 16 16 16 16 15 15 14 14 13 13 12 12 12
Wind_Direction
180 172 183 204 220 237 241 242 251 257 262 263 265 266 262 262 262 261 260 261 263 265 266 267 268 269 270 271 272 272 272 273 276 276 278 279 280 281 282 284 285 285 287 289
110 162 180 204 230 242 251 253 257 263 271 274 279 277 274 270 267 267 267 268 268 268 270 271 272 272 272 272 272 272 272 272 273 275 277 279 280 281 283 284 286 288 291 292
57 333 261 253 258 259 263 267 272 275 277 279 280 280 281 278 275 274 272 271 270 269 271 272 272 271 273 272 272 272 272 272 274 276 278 279 281 283 285 287 289 291 291 293
284 270 270 281 279 276 275 277 276 276 277 278 279 282 282 283 280 277 274 273 271 270 271 272 274 276 279 277 276 276 277 277 278 280 283 284 285 286 288 289 291 292 293 295
334 293 293 294 295 292 289 289 285 282 281 283 285 285 284 282 281 276 273 273 273 276 278 280 281 282 281 281 282 283 283 284 284 286 289 289 289 289 291 291 292 294 295 296
326 307 299 304 303 303 301 300 296 292 289 288 289 288 285 281 278 278 275 276 280 281 283 285 285 284 284 284 286 286 287 286 286 287 288 289 290 291 292 292 292 293 294 296
317 310 317 311 311 309 307 307 304 300 296 294 293 290 287 284 283 283 282 282 280 282 283 284 284 285 284 285 288 289 289 288 288 288 290 291 292 292 292 293 293 295 295 296
323 321 322 320 320 318 315 314 313 310 307 304 300 294 290 289 288 287 286 285 285 284 286 287 288 289 290 290 290 291 291 292 291 292 294 294 293 293 293 294 295 296 297 298
334 330 328 329 330 329 327 325 322 319 317 313 309 303 296 295 294 293 293 292 291 291 291 291 293 293 294 294 294 294 296 296 295 296 297 296 296 297 297 297 297 297 297 298
339 337 337 337 338 339 338 334 331 328 326 323 318 312 304 301 300 298 297 297 298 297 297 297 297 298 298 298 298 298 299 300 299 300 302 304 303 301 300 298 298 298 298 298
344 345 345 344 344 344 343 341 339 337 334 330 327 323 317 312 309 307 306 305 303 301 299 299 300 301 302 302 303 303 305 304 304 304 305 305 305 305 305 302 301 299 298 297
348 349 350 350 349 349 349 349 349 348 347 345 340 338 333 326 322 320 320 319 316 313 312 313 314 313 311 310 308 307 307 307 307 307 307 308 309 309 310 309 306 304 300 299
352 352 352 352 352 354 353 353 354 356 356 355 353 350 346 344 342 341 339 337 334 333 331 329 325 321 319 318 315 313 311 312 312 311 311 311 310 309 310 310 308 307 305 302
353 354 356 356 357 358 357 358 359 1 3 4 3 2 1 359 357 355 352 349 346 343 340 337 334 331 327 325 323 322 320 317 316 318 318 316 315 312 312 313 313 311 311 311
352 355 357 358 359 0 1 2 4 6 6 7 6 5 5 4 1 359 359 358 355 351 348 347 345 342 338 335 333 333 333 330 328 328 328 325 324 323 319 315 312 313 313 315
354 358 0 1 2 3 5 6 7 9 9 9 9 9 9 8 7 7 5 3 3 1 358 355 352 350 348 347 347 345 343 340 338 336 334 332 328 326 324 320 316 315 314 315
355 359 1 2 3 5 7 10 11 11 11 12 12 12 11 10 10 9 6 6 6 5 4 4 2 0 359 359 360 358 355 353 350 348 345 343 340 332 325 320 320 321 321 322
353 357 359 1 3 6 9 11 13 13 14 15 15 15 14 14 14 12 10 10 10 9 9 9 8 8 7 8 8 6 5 4 2 360 357 353 350 346 340 332 326 328 333 334
346 353 357 360 3 5 8 11 13 14 15 15 17 18 17 18 17 17 17 15 14 14 13 13 13 12 12 14 14 12 12 12 11 9 6 3 1 359 357 353 348 346 347 346
337 346 353 358 1 4 7 10 12 13 15 15 17 19 20 20 20 20 19 19 20 21 20 19 17 17 18 20 20 18 20 21 20 17 15 13 11 10 10 9 7 7 7 6
326 338 347 353 358 1 5 8 10 12 13 15 17 19 20 21 22 23 23 24 26 26 26 25 25 25 26 27 26 26 29 29 26 24 21 19 17 16 18 19 19 19 17 15
312 327 338 345 352 357 2 5 7 9 11 14 16 18 20 20 21 23 25 27 28 29 28 28 29 30 31 32 30 33 33 31 29 28 28 27 25 24 25 26 26 25 24 24
296 312 326 335 342 350 356 0 3 6 8 11 13 16 18 19 20 21 23 25 27 28 27 27 29 30 31 31 30 33 33 32 31 31 31 31 31 31 31 32 32 34 35 35
284 298 312 322 331 338 346 352 356 0 4 6 9 12 14 16 17 18 20 22 24 26 26 27 29 30 30 30 32 33 33 31 31 31 32 32 33 34 36 38 40 41 42 42
277 287 298 309 318 327 334 341 347 352 356 359 2 6 8 11 13 15 17 19 20 22 23 25 27 28 28 28 31 33 33 32 32 31 32 32 34 35 37 39 41 43 44 43
271 279 287 296 304 312 320 328 334 341 346 350 353 357 1 4 6 9 11 12 14 17 18 19 22 24 25 26 28 29 30 30 30 31 32 33 35 36 37 39 41 42 43 43
266 273 279 286 292 299 306 313 320 327 332 337 341 346 349 353 356 359 2 3 5 8 11 13 16 18 20 22 24 25 26 27 28 29 30 32 34 35 36 38 40 40 40 40
Height
5755 5757 5759 5761 5763 5764 5764 5763 5762 5761 5760 5758 5758 5759 5759 5761 5762 5762 5763 5763 5764 5764 5764 5764 5764 5763 5763 5762 5762 5761 5760 5760 5759 5758 5756 5755 5754 5752 5750 5748 5746 5744 5742 5740
5755 5756 5758 5760 5761 5761 5760 5759 5758 5758 5756 5754 5754 5755 5755 5755 5756 5756 5756 5756 5756 5756 5756 5756 5755 5754 5754 5753 5753 5752 5751 5750 5749 5748 5747 5746 5744 5742 5740 5739 5737 5735 5732 5730
5756 5758 5758 5759 5759 5758 5758 5756 5756 5755 5754 5751 5751 5750 5750 5750 5750 5749 5749 5749 5749 5748 5748 5747 5746 5745 5745 5745 5744 5743 5742 5741 5740 5739 5738 5736 5735 5733 5731 5730 5728 5726 5723 5721
5757 5758 5758 5759 5757 5756 5755 5754 5752 5751 5749 5748 5747 5746 5745 5744 5744 5744 5743 5742 5741 5740 5740 5740 5739 5738 5738 5737 5736 5735 5734 5733 5731 5730 5729 5728 5726 5724 5723 5721 5719 5717 5714 5712
5756 5757 5756 5756 5755 5753 5752 5750 5748 5747 5745 5743 5742 5741 5740 5739 5738 5737 5736 5735 5735 5733 5733 5732 5732 5731 5731 5730 5729 5727 5726 5725 5724 5723 5721 5720 5718 5716 5714 5712 5711 5708 5706 5703
5756 5756 5755 5755 5753 5751 5750 5747 5745 5743 5741 5739 5737 5736 5735 5733 5732 5731 5730 5729 5729 5727 5727 5726 5726 5725 5724 5723 5722 5721 5720 5718 5717 5716 5714 5712 5711 5709 5707 5705 5702 5700 5698 5695
5756 5754 5753 5752 5750 5749 5747 5745 5741 5739 5737 5735 5733 5731 5730 5728 5727 5726 5725 5724 5723 5722 5722 5721 5720 5719 5719 5717 5716 5715 5714 5712 5710 5709 5707 5705 5703 5701 5699 5697 5695 5693 5690 5688
5756 5754 5755 5750 5748 5746 5744 5740 5738 5735 5733 5730 5728 5726 5725 5723 5722 5721 5720 5719 5718 5718 5717 5716 5715 5714 5713 5712 5710 5709 5707 5706 5704 5702 5700 5698 5696 5694 5692 5690 5688 5686 5684 5682
5756 5755 5752 5749 5746 5743 5740 5738 5735 5732 5729 5727 5725 5723 5721 5720 5719 5718 5717 5715 5714 5713 5712 5711 5710 5709 5708 5706 5705 5703 5701 5700 5698 5696 5694 5692 5690 5688 5685 5684 5682 5681 5679 5677
5754 5753 5750 5748 5745 5742 5739 5736 5733 5730 5727 5725 5722 5720 5718 5717 5716 5715 5713 5712 5711 5710 5708 5707 5706 5704 5703 5701 5699 5698 5696 5694 5692 5690 5688 5686 5684 5682 5680 5679 5677 5676 5674 5673
5754 5752 5750 5747 5744 5741 5738 5735 5732 5728 5726 5723 5721 5718 5717 5715 5714 5712 5711 5709 5707 5706 5705 5703 5702 5700 5698 5696 5694 5693 5691 5689 5688 5686 5684 5682 5680 5678 5676 5674 5673 5672 5670 5669
5754 5752 5750 5747 5744 5741 5738 5734 5731 5728 5725 5722 5720 5717 5715 5714 5712 5710 5708 5707 5705 5703 5701 5699 5698 5696 5694 5692 5690 5688 5687 5685 5683 5681 5680 5678 5676 5674 5672 5671 5669 5668 5667 5667
5754 5752 5749 5747 5744 5741 5737 5734 5731 5727 5725 5722 5719 5717 5715 5713 5711 5709 5707 5705 5703 5701 5699 5697 5695 5693 5690 5688 5686 5685 5683 5681 5679 5678 5676 5675 5673 5671 5670 5669 5667 5666 5665 5664
5754 5752 5749 5747 5744 5741 5738 5734 5731 5728 5725 5722 5720 5717 5715 5713 5711 5709 5707 5704 5702 5700 5698 5695 5693 5690 5687 5685 5683 5681 5680 5678 5676 5675 5673 5672 5670 5669 5668 5667 5665 5664 5664 5663
5754 5752 5750 5747 5744 5741 5738 5735 5732 5729 5726 5723 5720 5718 5716 5714 5711 5709 5707 5704 5702 5699 5697 5694 5691 5689 5686 5684 5681 5680 5678 5676 5674 5672 5671 5670 5668 5667 5666 5665 5664 5663 5662 5661
5754 5752 5750 5747 5745 5742 5739 5736 5733 5730 5727 5724 5721 5719 5717 5714 5712 5710 5707 5705 5702 5699 5697 5694 5691 5688 5685 5683 5681 5678 5676 5674 5673 5671 5670 5668 5667 5665 5664 5663 5662 5661 5661 5660
5754 5752 5750 5748 5745 5742 5740 5737 5734 5731 5728 5725 5723 5720 5718 5715 5713 5711 5708 5705 5703 5700 5697 5694 5691 5688 5685 5682 5680 5678 5676 5674 5672 5670 5669 5667 5665 5664 5663 5662 5661 5660 5659 5659
5754 5752 5750 5748 5746 5743 5740 5738 5735 5732 5729 5727 5724 5722 5719 5717 5714 5712 5709 5706 5704 5701 5698 5694 5691 5688 5685 5682 5680 5678 5676 5674 5672 5670 5668 5666 5665 5663 5662 5661 5660 5659 5659 5658
5753 5752 5750 5748 5746 5744 5741 5739 5736 5733 5731 5728 5726 5723 5721 5718 5716 5713 5710 5707 5705 5702 5699 5695 5692 5689 5686 5683 5681 5679 5676 5674 5672 5670 5669 5667 5665 5663 5662 5661 5660 5659 5658 5658
5753 5752 5750 5749 5747 5745 5742 5740 5737 5735 5732 5730 5727 5725 5722 5720 5717 5715 5712 5709 5706 5703 5700 5696 5693 5690 5687 5684 5682 5680 5678 5675 5673 5671 5669 5668 5666 5664 5662 5661 5660 5659 5659 5658
5752 5751 5750 5749 5747 5745 5743 5741 5738 5736 5734 5731 5729 5727 5724 5722 5719 5717 5714 5711 5708 5705 5702 5699 5696 5693 5689 5686 5684 5682 5680 5677 5675 5673 5671 5669 5667 5665 5664 5662 5661 5661 5660 5659
5751 5751 5750 5749 5747 5745 5743 5741 5739 5737 5735 5733 5731 5728 5726 5724 5721 5719 5716 5714 5711 5708 5705 5702 5699 5695 5692 5690 5687 5685 5682 5680 5678 5676 5673 5671 5669 5667 5665 5664 5663 5662 5661 5660
5750 5750 5749 5748 5747 5745 5744 5742 5740 5738 5736 5734 5732 5730 5728 5726 5723 5721 5719 5716 5713 5710 5708 5705 5702 5699 5696 5693 5691 5688 5686 5683 5681 5679 5676 5674 5672 5670 5668 5666 5665 5663 5663 5662
5748 5748 5748 5747 5746 5745 5744 5742 5740 5739 5737 5735 5733 5731 5729 5727 5725 5723 5720 5718 5716 5713 5711 5708 5705 5702 5699 5697 5694 5691 5689 5686 5684 5682 5679 5677 5674 5672 5670 5668 5667 5666 5665 5664
5746 5746 5746 5746 5745 5744 5743 5742 5740 5739 5737 5736 5734 5732 5730 5729 5727 5724 5722 5720 5718 5715 5713 5711 5708 5705 5703 5700 5697 5695 5692 5689 5687 5684 5682 5680 5678 5675 5673 5672 5670 5669 5667 5666
5743 5743 5744 5743 5743 5743 5742 5741 5740 5738 5737 5735 5734 5732 5731 5729 5727 5725 5724 5721 5719 5717 5715 5713 5710 5708 5705 5703 5700 5698 5695 5693 5690 5688 5685 5683 5681 5678 5676 5675 5673 5672 5670 5669
5740 5740 5740 5741 5741 5740 5740 5739 5738 5737 5736 5735 5734 5732 5731 5729 5728 5726 5724 5723 5721 5719 5717 5715 5712 5710 5708 5705 5703 5700 5698 5696 5693 5691 5688 5686 5684 5682 5680 5678 5676 5674 5673 5671